Glens Falls, NY

12:19 PM EDT on October 22, 2017 (GMT -0400)
Bennett Memorial

Weather History for KGFL - August, 2014

Change the Weather History Date:

Saturday, August 9, 2014

  Actual Average Record
Temperature  
Mean Temperature 68 °F 68 °F  
Max Temperature 82 °F 80 °F 98 °F (1949)
Min Temperature 54 °F 56 °F 43 °F (2004)
Degree Days  
Heating Degree Days 0 1  
Month to date heating degree days 0 9  
Since 1 June heating degree days 33 120  
Since 1 July heating degree days 1 30  
Cooling Degree Days 3 4  
Month to date cooling degree days 38 36  
Year to date cooling degree days 291 256  
Since 1 June cooling degree days 271 244  
Growing Degree Days 18 (Base 50)    
Moisture  
Dew Point 57 °F    
Average Humidity 68    
Maximum Humidity 97    
Minimum Humidity 39    
Precipitation  
Precipitation 0.00 in 0.13 in 1.16 in (1991)
Month to date precipitation 0.24 1.18  
Year to date precipitation 23.45 23.31  
Sea Level Pressure  
Sea Level Pressure 30.10 in    
Wind  
Wind Speed 1 mph (SE)    
Max Wind Speed 9 mph    
Max Gust Speed 12 mph    
Visibility 10 miles    
Events      
T = Trace of Precipitation, MM = Missing Value Source: NWS Daily Summary

Daily Weather History Graph

Daily Weather History Graph

Search for Another Location

Airport or City:

Trip Planner

Search our weather history database for the weather conditions in past years. The results will help you decide how hot, cold, wet, or windy it might be!

Date:

Astronomy

Aug. 09, 2014 Rise Set
Actual Time 5:53 AM EDT 8:06 PM EDT
Civil Twilight 5:21 AM EDT 8:37 PM EDT
Nautical Twilight 4:42 AM EDT 9:16 PM EDT
Astronomical Twilight 3:59 AM EDT 9:59 PM EDT
Moon 7:04 PM EDT (8/9) 4:30 AM EDT (8/9)
Length of Visible Light 15h 16m
Length of Day
14h 13m
Waxing Gibbous, 98% of the Moon is Illuminated
Aug 9
Waxing Gibbous
Aug 10
Full
Aug 17
Last Quarter
Aug 25
New
Sep 2
First Quarter

Hourly Weather History & Observations

Time (EDT) Temp. Heat Index Dew Point Humidity Pressure Visibility Wind Dir Wind Speed Gust Speed Precip Events Conditions
12:53 AM 57.9 °F - 55.9 °F 93% 30.08 in 7.0 mi South 3.5 mph - N/A   Clear
1:53 AM 57.0 °F - 53.1 °F 87% 30.07 in 10.0 mi Calm Calm - N/A   Clear
2:53 AM 57.0 °F - 55.0 °F 93% 30.07 in 10.0 mi South 3.5 mph - N/A   Clear
3:53 AM 57.0 °F - 54.0 °F 89% 30.08 in 10.0 mi Calm Calm - N/A   Clear
4:53 AM 55.0 °F - 54.0 °F 96% 30.09 in 5.0 mi Calm Calm - N/A   Clear
5:53 AM 55.0 °F - 53.1 °F 93% 30.11 in 10.0 mi Calm Calm - N/A   Clear
6:53 AM 57.0 °F - 54.0 °F 89% 30.13 in 9.0 mi Calm Calm - N/A   Clear
7:53 AM 62.1 °F - 57.0 °F 84% 30.14 in 10.0 mi SSW 3.5 mph - N/A   Clear
8:53 AM 64.9 °F - 57.9 °F 78% 30.14 in 10.0 mi ESE 3.5 mph - N/A   Clear
9:53 AM 69.1 °F - 57.9 °F 68% 30.14 in 10.0 mi Calm Calm - N/A   Clear
10:53 AM 72.0 °F - 57.9 °F 61% 30.13 in 10.0 mi Calm Calm - N/A   Clear
11:53 AM 75.9 °F - 59.0 °F 56% 30.12 in 10.0 mi South 3.5 mph - N/A   Clear
1:53 PM 80.1 °F 80.9 °F 60.1 °F 50% 30.09 in 10.0 mi East 9.2 mph - N/A   Scattered Clouds
2:53 PM 80.1 °F 80.6 °F 57.9 °F 47% 30.08 in 10.0 mi NNE 6.9 mph - N/A   Mostly Cloudy
3:53 PM 82.0 °F 81.6 °F 55.9 °F 41% 30.08 in 10.0 mi Calm Calm - N/A   Mostly Cloudy
4:53 PM 82.0 °F 81.6 °F 55.9 °F 41% 30.07 in 10.0 mi Calm Calm - N/A   Partly Cloudy
5:53 PM 80.1 °F 80.0 °F 54.0 °F 40% 30.08 in 10.0 mi NE 4.6 mph - N/A   Mostly Cloudy
6:53 PM 75.9 °F - 64.0 °F 67% 30.09 in 10.0 mi Calm Calm - N/A   Mostly Cloudy
7:53 PM 69.1 °F - 61.0 °F 75% 30.09 in 10.0 mi Calm Calm - N/A   Partly Cloudy
8:53 PM 64.9 °F - 59.0 °F 81% 30.11 in 10.0 mi Calm Calm - N/A   Clear
9:53 PM 63.0 °F - 59.0 °F 87% 30.12 in 10.0 mi Calm Calm - N/A   Clear
10:53 PM 62.6 °F - 60.8 °F 94% 30.12 in 10.0 mi Calm Calm - N/A   Mostly Cloudy